TimeEST,TemperatureF,Dew PointF,Humidity,Sea Level PressureIn,VisibilityMPH,Wind Direction,Wind SpeedMPH,Gust SpeedMPH,PrecipitationIn,Events,Conditions,WindDirDegrees,DateUTC
12:53 AM,46.9,45.0,93,29.90,10.0,NNW,4.6,-,0.04,,Overcast,330,2011-12-07 05:53:00
1:53 AM,46.0,44.1,93,29.89,10.0,NW,3.5,-,0.00,,Overcast,310,2011-12-07 06:53:00
2:53 AM,44.6,42.8,93,29.92,9.0,NW,3.5,-,N/A,Rain,Light Rain,320,2011-12-07 07:53:00
3:25 AM,44.6,42.8,93,29.90,10.0,NNW,4.6,-,0.00,,Overcast,330,2011-12-07 08:25:00
3:41 AM,44.6,42.8,93,29.88,10.0,Calm,Calm,-,0.00,,Overcast,0,2011-12-07 08:41:00
3:53 AM,44.6,42.8,93,29.87,10.0,NNW,4.6,-,N/A,,Overcast,330,2011-12-07 08:53:00
4:32 AM,44.6,42.8,93,29.88,10.0,Calm,Calm,-,N/A,,Overcast,0,2011-12-07 09:32:00
4:53 AM,44.1,42.1,93,29.87,10.0,NNW,4.6,-,N/A,,Overcast,330,2011-12-07 09:53:00
5:19 AM,44.6,41.0,87,29.88,10.0,NW,3.5,-,N/A,,Overcast,320,2011-12-07 10:19:00
5:38 AM,44.6,41.0,87,29.87,10.0,NNW,4.6,-,N/A,,Overcast,330,2011-12-07 10:38:00
5:53 AM,44.1,41.0,89,29.87,10.0,NNW,4.6,-,N/A,,Overcast,340,2011-12-07 10:53:00
6:28 AM,42.8,41.0,93,29.89,2.5,WNW,4.6,-,0.06,Rain,Heavy Rain,290,2011-12-07 11:28:00
6:31 AM,42.8,41.0,93,29.89,3.0,WNW,4.6,-,0.07,Rain,Heavy Rain,300,2011-12-07 11:31:00
6:53 AM,43.0,41.0,93,29.88,10.0,NNW,3.5,-,0.08,Rain,Light Rain,340,2011-12-07 11:53:00
7:00 AM,42.8,41.0,93,29.90,10.0,NW,6.9,-,0.00,,Overcast,310,2011-12-07 12:00:00
7:34 AM,42.8,39.2,87,29.85,10.0,NNE,5.8,-,0.00,Rain,Light Rain,30,2011-12-07 12:34:00
7:51 AM,42.8,41.0,93,29.85,8.0,Calm,Calm,-,0.01,Rain,Light Rain,0,2011-12-07 12:51:00
7:53 AM,43.0,41.0,93,29.84,8.0,Calm,Calm,-,0.01,Rain,Light Rain,0,2011-12-07 12:53:00
8:53 AM,43.0,41.0,93,29.87,4.0,NW,5.8,-,0.04,Rain,Light Rain,320,2011-12-07 13:53:00
9:02 AM,42.8,41.0,93,29.89,5.0,Calm,Calm,-,0.01,Rain,Light Rain,0,2011-12-07 14:02:00
9:19 AM,42.8,41.0,93,29.89,2.5,Calm,Calm,-,0.03,Rain,Rain,0,2011-12-07 14:19:00
9:31 AM,42.8,39.2,87,29.88,3.0,Calm,Calm,-,0.05,Rain,Light Rain,0,2011-12-07 14:31:00
9:53 AM,43.0,41.0,93,29.86,3.0,NNW,3.5,-,0.09,Rain,Rain,340,2011-12-07 14:53:00
10:53 AM,43.0,41.0,93,29.82,4.0,North,3.5,-,0.10,Rain,Light Rain,10,2011-12-07 15:53:00
11:53 AM,43.0,39.9,89,29.80,9.0,Variable,3.5,-,0.07,Rain,Light Rain,0,2011-12-07 16:53:00
12:53 PM,43.0,39.9,89,29.75,5.0,North,8.1,-,0.04,Rain,Light Rain,360,2011-12-07 17:53:00
1:00 PM,42.8,39.2,87,29.75,10.0,North,6.9,-,0.00,Rain,Light Rain,360,2011-12-07 18:00:00
1:09 PM,42.8,39.2,87,29.75,10.0,NNE,4.6,-,0.00,Rain,Light Rain,20,2011-12-07 18:09:00
1:53 PM,43.0,41.0,93,29.72,5.0,North,4.6,-,0.01,Rain,Light Rain,360,2011-12-07 18:53:00
2:53 PM,43.0,39.9,89,29.70,6.0,North,5.8,-,0.02,Rain,Light Rain,350,2011-12-07 19:53:00
3:08 PM,42.8,41.0,93,29.70,2.0,Variable,4.6,-,0.04,Rain,Rain,0,2011-12-07 20:08:00
3:53 PM,42.1,39.9,92,29.68,2.0,NNW,5.8,-,0.09,Rain,Rain,330,2011-12-07 20:53:00
4:31 PM,42.8,39.2,87,29.68,2.0,NNE,6.9,-,0.12,Rain,Rain,20,2011-12-07 21:31:00
4:46 PM,42.8,39.2,87,29.68,2.0,NNW,4.6,-,0.15,Rain,Light Rain,330,2011-12-07 21:46:00
4:53 PM,42.1,39.9,92,29.68,6.0,NW,4.6,-,0.15,Rain,Light Rain,320,2011-12-07 21:53:00
5:53 PM,41.0,39.0,93,29.64,5.0,NNE,9.2,-,0.09,Rain,Light Rain,20,2011-12-07 22:53:00
6:49 PM,41.0,37.4,87,29.65,2.5,NNW,8.1,-,0.09,Rain,Heavy Rain,340,2011-12-07 23:49:00
6:53 PM,41.0,37.4,87,29.65,2.5,NNW,9.2,-,N/A,Rain,Heavy Rain,340,2011-12-07 23:53:00
7:09 PM,39.2,37.4,93,29.61,3.0,NE,8.1,-,0.06,Rain,Rain,40,2011-12-08 00:09:00
7:21 PM,39.2,37.4,93,29.60,4.0,NNE,6.9,-,0.09,Rain,Rain,20,2011-12-08 00:21:00
7:53 PM,39.9,37.9,93,29.60,5.0,North,8.1,-,0.15,Rain,Light Rain,360,2011-12-08 00:53:00
8:53 PM,39.9,37.9,93,29.57,3.0,North,8.1,-,0.22,Rain,Rain,10,2011-12-08 01:53:00
9:31 PM,39.2,37.4,93,29.55,2.5,North,12.7,18.4,0.14,Rain,Heavy Rain,10,2011-12-08 02:31:00
9:41 PM,39.2,37.4,93,29.56,3.0,North,13.8,21.9,0.18,Rain,Rain,10,2011-12-08 02:41:00
9:53 PM,39.9,37.9,93,29.57,4.0,North,12.7,-,0.23,Rain,Rain,360,2011-12-08 02:53:00
10:07 PM,41.0,37.4,87,29.58,4.0,North,15.0,21.9,0.05,Rain,Rain,360,2011-12-08 03:07:00
10:16 PM,41.0,37.4,87,29.57,3.0,North,17.3,28.8,0.11,Rain,Heavy Rain,360,2011-12-08 03:16:00
10:53 PM,39.9,37.0,89,29.55,3.0,North,16.1,29.9,0.28,Rain,Rain,10,2011-12-08 03:53:00
11:10 PM,39.2,37.4,93,29.53,4.0,North,19.6,26.5,0.06,Rain,Rain,10,2011-12-08 04:10:00
11:26 PM,39.2,35.6,87,29.54,4.0,North,17.3,24.2,0.10,Rain,Rain,360,2011-12-08 04:26:00
11:53 PM,37.9,35.1,89,29.53,3.0,North,18.4,25.3,0.25,Rain,Heavy Rain,350,2011-12-08 04:53:00